Home > Weather > Budapest > Past weeks

Flag for Hungary Weather for the Past 2 Weeks in Budapest, Hungary

Now
57 °F

Partly sunny.


Feels Like: 57 °F
Forecast: 37 / 65 °F
Wind: 5 mph from East

Location: Ferenc Liszt International Airport

Current Time: Apr 29, 2016 at 2:23:36 PM

Latest Report: Apr 29, 2016 at 2:00 PM


Visibility: N/A

Pressure: 30.09 "Hg

Humidity: 51%

Dew Point: 39 °F

Location of BudapestLocation

Historic Weather in Budapest — Graph

°F

Budapest Temperature Yesterday

Maximum temperature yesterday: 55 °F (at 2:30 PM)
Minimum temperature yesterday: 30 °F (at 5:30 AM)
Average temperature yesterday: 47 °F

High & Low Weather Summary for the Past Weeks

 TemperatureHumidityPressure
High77 °F (Apr 16, 3:00 PM)100% (Apr 15, 6:00 AM)30.36 "Hg (Apr 15, 6:00 AM)
Low28 °F (Apr 26, 6:30 AM)29% (Apr 16, 2:30 PM)29.50 "Hg (Apr 24, 5:30 AM)
Average53 °F64%29.90 "Hg
* Reported Apr 14 1:00 PM — Apr 29 1:30 PM, Budapest, Weather by CustomWeather, © 2016

Note: Actual official high and low records may vary slightly from our data, if they occured in-between our weather recording intervals... More about our weather records

Advertising

Budapest Weather History for the Previous 24 Hours

Scroll right to see more
 ConditionsComfort  
Time TempWeatherWind HumidityBarometerVisibility
1:30 PM
Fri, Apr 29
57 °FPartly sunny.5 mph51%30.09 "HgN/A
1:00 PM57 °FPartly sunny.5 mph51%30.09 "HgN/A
12:30 PM55 °FBroken clouds.5 mph55%30.12 "HgN/A
12:00 PM55 °FBroken clouds.6 mph55%30.12 "HgN/A
11:30 AM55 °FBroken clouds.6 mph59%30.12 "HgN/A
11:00 AM54 °FBroken clouds.3 mph58%30.12 "HgN/A
10:00 AM50 °FBroken clouds.2 mph71%30.12 "HgN/A
9:30 AM50 °FBroken clouds.6 mph67%30.12 "HgN/A
9:00 AM48 °FBroken clouds.6 mph71%30.12 "HgN/A
8:30 AM46 °FBroken clouds.8 mph76%30.12 "HgN/A
8:00 AM46 °FScattered clouds.8 mph76%30.12 "HgN/A
7:30 AM45 °FPartly sunny.9 mph81%30.12 "HgN/A
7:00 AM45 °FPartly sunny.9 mph81%30.09 "HgN/A
6:30 AM45 °FPartly sunny.9 mph81%30.09 "HgN/A
6:00 AM45 °FPassing clouds.8 mph81%30.09 "HgN/A
5:00 AM43 °FPassing clouds.7 mph87%30.09 "HgN/A
4:30 AM45 °FPassing clouds.6 mph81%30.09 "HgN/A
4:00 AM45 °FPassing clouds.6 mph81%30.09 "HgN/A
3:00 AM45 °FPassing clouds.6 mph87%30.09 "HgN/A
2:30 AM46 °FPassing clouds.6 mph82%30.07 "HgN/A
2:00 AM46 °FPassing clouds.6 mph82%30.07 "HgN/A
1:00 AM46 °FPassing clouds.9 mph87%30.07 "HgN/A
12:30 AM46 °FPassing clouds.7 mph87%30.07 "HgN/A
12:00 AM46 °FPassing clouds.8 mph87%30.07 "HgN/A
11:30 PM
Thu, Apr 28
46 °FPassing clouds.8 mph93%30.07 "HgN/A
11:00 PM46 °FPassing clouds.8 mph93%30.07 "HgN/A
10:30 PM46 °FPassing clouds.6 mph93%30.07 "HgN/A
10:00 PM48 °FLight rain. Passing clouds.5 mph100%30.07 "HgN/A
9:30 PM48 °FLight rain. Overcast.6 mph94%30.07 "HgN/A
9:00 PM48 °FLight rain. Overcast.5 mph76%30.07 "HgN/A
8:30 PM50 °FLight rain. Partly sunny.6 mph67%30.07 "HgN/A
8:00 PM50 °FLight rain. Broken clouds.7 mph67%30.07 "HgN/A
7:30 PM52 °FLight rain. Partly sunny.6 mph62%30.04 "HgN/A
7:00 PM52 °FLight rain. Broken clouds.6 mph54%30.04 "HgN/A
6:30 PM52 °FPartly sunny.2 mph50%30.04 "HgN/A
6:00 PM54 °FSunny.1 mph47%30.04 "Hg10 mi
5:30 PM54 °FSunny.6 mph47%30.04 "Hg10 mi
5:00 PM54 °FPassing clouds.6 mph44%30.04 "HgN/A
4:30 PM54 °FScattered clouds.9 mph44%30.04 "HgN/A
4:00 PM54 °FPartly sunny.6 mph38%30.04 "HgN/A
3:00 PM54 °FSunny.5 mph41%30.07 "Hg10 mi
2:30 PM55 °FSunny.5 mph36%30.07 "Hg10 mi
2:00 PM54 °FPassing clouds.7 mph41%30.07 "HgN/A
Weather by CustomWeather, © 2016

See weather overviewHow to use our weather pages